Location: Unspecified
(0.0000°N, 0.0000°E)
Time: 00:35:42
(UTC+00:00)

Vanguard 1 Rocket - All Passes

Search period start: 28 April 2017 00:00
Search period end: 08 May 2017 00:00
Orbit: 650 x 4227 km, 34.3° (Epoch: 26 April)

Date Brightness Start Highest point End Pass type
(mag) Time Alt. Az. Time Alt. Az. Time Alt. Az.
28 Apr - 01:52:20 10° WSW 02:03:31 36° NW 02:09:52 10° NNE visible
28 Apr - 09:27:33 10° NNE 09:30:10 12° NE 09:33:14 10° ENE daylight
28 Apr - 11:47:05 10° NW 11:55:47 72° NE 12:13:34 10° ESE daylight
28 Apr - 14:13:10 10° W 14:25:51 45° SSW 14:47:50 10° SE daylight
28 Apr - 16:47:04 10° WSW 17:03:17 24° S 17:22:36 10° SE daylight
28 Apr - 19:26:47 10° SW 19:45:55 24° S 20:01:19 10° ESE visible
28 Apr - 22:01:49 10° SW 22:22:45 44° SSE 22:34:30 10° E visible
29 Apr - 00:35:56 10° WSW 00:52:15 69° NW 01:00:16 10° NE night (unlit)
29 Apr - 10:37:22 10° NNW 10:44:17 40° NE 10:56:57 10° ESE daylight
29 Apr - 13:01:15 10° WNW 13:11:41 61° SSW 13:32:11 10° SE daylight
29 Apr - 15:31:22 10° WSW 15:45:46 29° SSW 16:06:10 10° SE daylight
29 Apr - 18:09:35 10° SW 18:27:20 22° S 18:44:24 10° SE visible
29 Apr - 20:46:06 10° SW 21:07:30 34° SSE 21:21:28 10° E visible
29 Apr - 23:19:54 10° SW 23:39:59 78° SE 23:49:50 10° ENE visible
30 Apr - 01:56:34 10° W 02:06:25 26° NW 02:12:29 10° N visible
30 Apr - 09:28:52 10° N 09:33:17 18° NE 09:39:25 10° E daylight
30 Apr - 11:50:21 10° NW 11:58:51 88° SW 12:16:27 10° SE daylight
30 Apr - 14:17:30 10° W 14:29:47 36° SSW 14:50:09 10° SE daylight
30 Apr - 16:52:34 10° SW 17:08:25 22° S 17:26:41 10° SE daylight
30 Apr - 19:30:11 10° SW 19:50:44 28° SSE 20:06:42 10° ESE visible
30 Apr - 22:04:07 10° SW 22:26:26 55° SSE 22:38:30 10° ENE visible
01 May - 00:39:13 10° WSW 00:55:10 52° NW 01:03:19 10° NNE night (unlit)
01 May - 10:40:16 10° NW 10:47:11 55° NE 11:00:35 10° ESE daylight
01 May - 13:05:07 10° W 13:15:18 48° SSW 13:34:30 10° SE daylight
01 May - 15:36:36 10° WSW 15:50:26 24° SSW 16:09:12 10° SE daylight
01 May - 18:14:02 10° SW 18:32:35 23° S 18:49:55 10° SE visible
01 May - 20:48:33 10° SW 21:11:31 42° SSE 21:25:58 10° E visible
01 May - 23:22:35 10° SW 23:43:07 85° NW 23:53:12 10° NE visible
02 May - 02:01:31 10° W 02:09:24 19° NW 02:14:49 10° N visible
02 May - 09:31:08 10° N 09:36:16 26° NE 09:44:16 10° E daylight
02 May - 11:53:50 10° WNW 12:02:08 68° SSW 12:19:06 10° SE daylight
02 May - 14:22:12 10° WSW 14:34:00 29° SSW 14:52:34 10° SE daylight
02 May - 16:57:49 10° SW 17:13:43 21° S 17:31:29 10° SE daylight
02 May - 19:33:08 10° SW 19:55:13 32° SSE 20:11:49 10° E visible
02 May - 22:06:30 10° SW 22:29:51 69° SE 22:42:13 10° ENE visible
03 May - 00:42:56 10° WSW 00:58:00 40° NW 01:06:12 10° NNE night (unlit)
03 May - 10:43:25 10° NW 10:50:12 76° NE 11:03:49 10° ESE daylight
03 May - 13:09:18 10° W 13:19:09 37° SSW 13:36:44 10° SE daylight
03 May - 15:42:02 10° SW 15:55:22 22° S 16:12:47 10° SE daylight
03 May - 18:17:49 10° SW 18:37:34 26° SSE 18:55:31 10° ESE visible
03 May - 20:50:55 10° SW 21:15:15 51° SSE 21:30:08 10° ENE visible
03 May - 23:25:33 10° WSW 23:46:03 68° NW 23:56:22 10° NE visible
04 May - 02:07:30 10° WNW 02:12:33 13° NW 02:16:32 10° NNW visible
04 May - 09:33:48 10° NNW 09:39:13 37° NE 09:48:25 10° ESE daylight
04 May - 11:57:35 10° WNW 12:05:41 51° SSW 12:21:32 10° SE daylight
04 May - 14:27:17 10° WSW 14:38:30 24° SSW 14:55:11 10° SE daylight
04 May - 17:02:33 10° SW 17:19:00 22° S 17:36:55 10° SE daylight
04 May - 19:35:49 10° SW 19:59:20 39° SSE 20:16:34 10° E visible
04 May - 22:09:01 10° SW 22:33:01 84° SE 22:45:41 10° NE visible
05 May - 00:47:10 10° W 01:00:51 30° NW 01:08:53 10° NNE night (unlit)
05 May - 08:25:38 10° N 08:28:31 14° NE 08:32:04 10° ENE daylight
05 May - 10:46:46 10° WNW 10:53:25 79° SW 11:06:43 10° SE daylight
05 May - 13:13:51 10° WSW 13:23:16 29° SSW 13:38:57 10° SE daylight
05 May - 15:47:23 10° SW 16:00:32 20° S 16:17:07 10° SE daylight
05 May - 18:21:06 10° SSW 18:42:12 30° SSE 19:00:56 10° ESE visible
05 May - 20:53:19 10° SW 21:18:42 62° SSE 21:33:59 10° ENE visible
05 May - 23:28:51 10° WSW 23:48:51 54° NW 23:59:22 10° NE visible
06 May - 09:36:44 10° NW 09:42:13 55° NE 09:52:05 10° ESE daylight
06 May - 12:01:38 10° W 12:09:27 38° SSW 12:23:48 10° SE daylight
06 May - 14:32:39 10° SW 14:43:15 20° S 14:58:10 10° SE daylight
06 May - 17:06:40 10° SSW 17:24:06 24° SSE 17:42:42 10° ESE daylight
06 May - 19:38:21 10° SW 20:03:08 47° SSE 20:20:57 10° E visible
06 May - 22:11:46 10° SW 22:35:59 81° NW 22:48:57 10° NE visible
07 May - 00:52:02 10° W 01:03:50 23° NW 01:11:22 10° N visible
07 May - 08:27:38 10° N 08:31:36 22° NE 08:37:07 10° E daylight
07 May - 10:50:23 10° WNW 10:56:52 56° SSW 11:09:23 10° SE daylight
07 May - 13:18:48 10° WSW 13:27:36 23° SSW 13:41:11 10° SSE daylight
07 May - 15:52:22 10° SSW 16:05:45 20° S 16:22:15 10° SE daylight
07 May - 18:24:01 10° SW 18:46:27 35° SSE 19:06:00 10° E visible
07 May - 20:55:48 10° SW 21:21:54 75° SE 21:37:34 10° ENE visible
